User: anonymous   Login
Location: Unspecified
(0.0000°N, 0.0000°E)
Time: 09:59:14
(UTC+00:00)
Language:

PANSAT - Orbit

View from above orbital plane
View from above orbital plane
View from above satellite
View from above satellite

Ground track
Ground track

The orbit data is extracted from the following two-line orbital elements,

1 25520U 98064B   21168.95003416  .00000978  00000-0  25213-4 0  9998
2 25520  28.4446  96.4458 0005015  36.3501 323.7434 15.29908326257958
Epoch (UTC): 17 June 2021 22:48:02
Eccentricity: 0.0005015
inclination: 28.4446°
perigee height: 472 km
apogee height: 479 km
right ascension of ascending node: 96.4458°
argument of perigee: 36.3501°
revolutions per day: 15.29908326
mean anomaly at epoch: 323.7434°
orbit number at epoch: 25795

The dashed part of the orbit path shows where the satellite is in the earth's shadow,  

DLR